Time,TemperatureF,DewpointF,PressureIn,WindDirection,WindDirectionDegrees,WindSpeedMPH,WindSpeedGustMPH,Humidity,HourlyPrecipIn,Conditions,Clouds,dailyrainin,SolarRadiationWatts/m^2,SoftwareType,DateUTC
2013-06-07 00:01:00,52.0,51.0,-100.00,NNW,340,1.0,4.0,97,0.10,,,0.46,0.000000,,2013-06-07 04:01:00,
2013-06-07 00:23:00,52.0,51.0,-100.00,NNW,340,1.0,4.0,97,0.10,,,0.46,0.000000,,2013-06-07 04:23:00,
2013-06-07 00:33:00,52.0,51.0,-100.00,NNW,340,1.0,4.0,97,0.10,,,0.46,0.000000,,2013-06-07 04:33:00,
2013-06-07 00:42:00,52.0,51.0,-100.00,NNW,340,1.0,4.0,97,0.10,,,0.46,0.000000,,2013-06-07 04:42:00,
2013-06-07 00:53:00,52.0,51.0,-100.00,NNW,340,1.0,4.0,97,0.10,,,0.46,0.000000,,2013-06-07 04:53:00,
2013-06-07 01:01:00,52.0,51.0,-100.00,NNW,340,0.0,4.0,98,0.11,,,0.57,0.000000,,2013-06-07 05:01:00,
2013-06-07 01:23:00,52.0,51.0,-100.00,NNW,340,0.0,4.0,98,0.11,,,0.57,0.000000,,2013-06-07 05:23:00,
2013-06-07 01:32:00,52.0,51.0,-100.00,NNW,340,0.0,4.0,98,0.11,,,0.57,0.000000,,2013-06-07 05:32:00,
2013-06-07 01:43:00,52.0,51.0,-100.00,NNW,340,0.0,4.0,98,0.11,,,0.57,0.000000,,2013-06-07 05:43:00,
2013-06-07 01:52:00,52.0,51.0,-100.00,NNW,340,0.0,4.0,98,0.11,,,0.57,0.000000,,2013-06-07 05:52:00,
2013-06-07 02:01:00,52.0,51.0,-100.00,North,354,1.0,5.0,98,0.08,,,0.65,0.000000,,2013-06-07 06:01:00,
2013-06-07 02:22:00,52.0,51.0,-100.00,North,354,1.0,5.0,98,0.08,,,0.65,0.000000,,2013-06-07 06:22:00,
2013-06-07 02:32:00,52.0,51.0,-100.00,North,354,1.0,5.0,98,0.08,,,0.65,0.000000,,2013-06-07 06:32:00,
2013-06-07 02:43:00,52.0,51.0,-100.00,North,354,1.0,5.0,98,0.08,,,0.65,0.000000,,2013-06-07 06:43:00,
2013-06-07 02:52:00,52.0,51.0,-100.00,North,354,1.0,5.0,98,0.08,,,0.65,0.000000,,2013-06-07 06:52:00,
2013-06-07 03:01:00,52.0,51.0,-100.00,North,3,0.0,4.0,98,0.08,,,0.73,0.000000,,2013-06-07 07:01:00,
2013-06-07 03:22:00,52.0,51.0,-100.00,North,3,0.0,4.0,98,0.08,,,0.73,0.000000,,2013-06-07 07:22:00,
2013-06-07 03:32:00,52.0,51.0,-100.00,North,3,0.0,4.0,98,0.08,,,0.73,0.000000,,2013-06-07 07:32:00,
2013-06-07 03:42:00,52.0,51.0,-100.00,North,3,0.0,4.0,98,0.08,,,0.73,0.000000,,2013-06-07 07:42:00,
2013-06-07 03:52:00,52.0,51.0,-100.00,North,3,0.0,4.0,98,0.08,,,0.73,0.000000,,2013-06-07 07:52:00,
2013-06-07 04:01:00,52.0,51.0,-100.00,NW,323,0.0,5.0,98,0.06,,,0.79,0.000000,,2013-06-07 08:01:00,
2013-06-07 04:22:00,52.0,51.0,-100.00,NW,323,0.0,5.0,98,0.06,,,0.79,0.000000,,2013-06-07 08:22:00,
2013-06-07 04:32:00,52.0,51.0,-100.00,NW,323,0.0,5.0,98,0.06,,,0.79,0.000000,,2013-06-07 08:32:00,
2013-06-07 04:43:00,52.0,51.0,-100.00,NW,323,0.0,5.0,98,0.06,,,0.79,0.000000,,2013-06-07 08:43:00,
2013-06-07 04:52:00,52.0,51.0,-100.00,NW,323,0.0,5.0,98,0.06,,,0.79,0.000000,,2013-06-07 08:52:00,
2013-06-07 05:01:00,52.0,51.0,-100.00,NNW,348,0.0,4.0,98,0.06,,,0.85,0.000000,,2013-06-07 09:01:00,
2013-06-07 05:22:00,52.0,51.0,-100.00,NNW,348,0.0,4.0,98,0.06,,,0.85,0.000000,,2013-06-07 09:22:00,
2013-06-07 05:32:00,52.0,51.0,-100.00,NNW,348,0.0,4.0,98,0.06,,,0.85,0.000000,,2013-06-07 09:32:00,
2013-06-07 05:43:00,52.0,51.0,-100.00,NNW,348,0.0,4.0,98,0.06,,,0.85,0.000000,,2013-06-07 09:43:00,
2013-06-07 05:53:00,52.0,51.0,-100.00,NNW,348,0.0,4.0,98,0.06,,,0.85,0.000000,,2013-06-07 09:53:00,
2013-06-07 06:01:00,53.0,52.0,-100.00,NNW,337,1.0,4.0,98,0.10,,,0.95,1.000000,,2013-06-07 10:01:00,
2013-06-07 06:23:00,53.0,52.0,-100.00,NNW,337,1.0,4.0,98,0.10,,,0.95,1.000000,,2013-06-07 10:23:00,
2013-06-07 06:33:00,53.0,52.0,-100.00,NNW,337,1.0,4.0,98,0.10,,,0.95,1.000000,,2013-06-07 10:33:00,
2013-06-07 06:43:00,53.0,52.0,-100.00,NNW,337,1.0,4.0,98,0.10,,,0.95,1.000000,,2013-06-07 10:43:00,
2013-06-07 06:53:00,53.0,52.0,-100.00,NNW,337,1.0,4.0,98,0.10,,,0.95,1.000000,,2013-06-07 10:53:00,
2013-06-07 07:01:00,53.0,52.0,-100.00,North,350,0.0,7.0,98,0.05,,,1.00,14.000000,,2013-06-07 11:01:00,
2013-06-07 07:22:00,53.0,52.0,-100.00,North,350,0.0,7.0,98,0.05,,,1.00,14.000000,,2013-06-07 11:22:00,
2013-06-07 07:32:00,53.0,52.0,-100.00,North,350,0.0,7.0,98,0.05,,,1.00,14.000000,,2013-06-07 11:32:00,
2013-06-07 07:42:00,53.0,52.0,-100.00,North,350,0.0,7.0,98,0.05,,,1.00,14.000000,,2013-06-07 11:42:00,
2013-06-07 07:52:00,53.0,52.0,-100.00,North,350,0.0,7.0,98,0.05,,,1.00,14.000000,,2013-06-07 11:52:00,
2013-06-07 08:01:00,54.0,53.0,-100.00,North,352,0.0,5.0,98,0.03,,,1.03,33.000000,,2013-06-07 12:01:00,
2013-06-07 08:22:00,54.0,53.0,-100.00,North,352,0.0,5.0,98,0.03,,,1.03,33.000000,,2013-06-07 12:22:00,
2013-06-07 08:33:00,54.0,53.0,-100.00,North,352,0.0,5.0,98,0.03,,,1.03,33.000000,,2013-06-07 12:33:00,
2013-06-07 08:42:00,54.0,53.0,-100.00,North,352,0.0,5.0,98,0.03,,,1.03,33.000000,,2013-06-07 12:42:00,
2013-06-07 08:52:00,54.0,53.0,-100.00,North,352,0.0,5.0,98,0.03,,,1.03,33.000000,,2013-06-07 12:52:00,
2013-06-07 09:01:00,55.0,54.0,-100.00,NNW,342,0.0,4.0,98,0.00,,,1.03,68.000000,,2013-06-07 13:01:00,
2013-06-07 09:22:00,55.0,54.0,-100.00,NNW,342,0.0,4.0,98,0.00,,,1.03,68.000000,,2013-06-07 13:22:00,
2013-06-07 09:32:00,55.0,54.0,-100.00,NNW,342,0.0,4.0,98,0.00,,,1.03,68.000000,,2013-06-07 13:32:00,
2013-06-07 09:43:00,55.0,54.0,-100.00,NNW,342,0.0,4.0,98,0.00,,,1.03,68.000000,,2013-06-07 13:43:00,
2013-06-07 09:52:00,55.0,54.0,-100.00,NNW,342,0.0,4.0,98,0.00,,,1.03,68.000000,,2013-06-07 13:52:00,
2013-06-07 10:01:00,56.0,55.0,-100.00,NNE,12,1.0,5.0,97,0.00,,,1.03,109.000000,,2013-06-07 14:01:00,
2013-06-07 10:23:00,56.0,55.0,-100.00,NNE,12,1.0,5.0,97,0.00,,,1.03,109.000000,,2013-06-07 14:23:00,
2013-06-07 10:33:00,56.0,55.0,-100.00,NNE,12,1.0,5.0,97,0.00,,,1.03,109.000000,,2013-06-07 14:33:00,
2013-06-07 10:42:00,56.0,55.0,-100.00,NNE,12,1.0,5.0,97,0.00,,,1.03,109.000000,,2013-06-07 14:42:00,
2013-06-07 10:52:00,56.0,55.0,-100.00,NNE,12,1.0,5.0,97,0.00,,,1.03,109.000000,,2013-06-07 14:52:00,
2013-06-07 11:01:00,57.0,56.0,-100.00,North,359,1.0,6.0,95,0.00,,,1.03,139.000000,,2013-06-07 15:01:00,
2013-06-07 11:23:00,57.0,56.0,-100.00,North,359,1.0,6.0,95,0.00,,,1.03,139.000000,,2013-06-07 15:23:00,
2013-06-07 11:33:00,57.0,56.0,-100.00,North,359,1.0,6.0,95,0.00,,,1.03,139.000000,,2013-06-07 15:33:00,
2013-06-07 11:43:00,57.0,56.0,-100.00,North,359,1.0,6.0,95,0.00,,,1.03,139.000000,,2013-06-07 15:43:00,
2013-06-07 11:53:00,57.0,56.0,-100.00,North,359,1.0,6.0,95,0.00,,,1.03,139.000000,,2013-06-07 15:53:00,
2013-06-07 12:01:00,57.0,55.0,-100.00,North,1,1.0,4.0,94,0.00,,,1.02,140.000000,,2013-06-07 16:01:00,
2013-06-07 12:22:00,57.0,55.0,-100.00,North,1,1.0,4.0,94,0.00,,,1.02,140.000000,,2013-06-07 16:22:00,
2013-06-07 12:33:00,57.0,55.0,-100.00,North,1,1.0,4.0,94,0.00,,,1.02,140.000000,,2013-06-07 16:33:00,
2013-06-07 12:43:00,57.0,55.0,-100.00,North,1,1.0,4.0,94,0.00,,,1.02,140.000000,,2013-06-07 16:43:00,
2013-06-07 12:53:00,57.0,55.0,-100.00,North,1,1.0,4.0,94,0.00,,,1.02,140.000000,,2013-06-07 16:53:00,
2013-06-07 13:01:00,57.0,55.0,-100.00,NNE,27,0.0,6.0,93,0.00,,,1.00,122.000000,,2013-06-07 17:01:00,
2013-06-07 13:23:00,57.0,55.0,-100.00,NNE,27,0.0,6.0,93,0.00,,,1.00,122.000000,,2013-06-07 17:23:00,
2013-06-07 13:32:00,57.0,55.0,-100.00,NNE,27,0.0,6.0,93,0.00,,,1.00,122.000000,,2013-06-07 17:32:00,
2013-06-07 13:43:00,57.0,55.0,-100.00,NNE,27,0.0,6.0,93,0.00,,,1.00,122.000000,,2013-06-07 17:43:00,
2013-06-07 13:53:00,57.0,55.0,-100.00,NNE,27,0.0,6.0,93,0.00,,,1.00,122.000000,,2013-06-07 17:53:00,
2013-06-07 14:01:00,58.0,56.0,-100.00,North,5,1.0,5.0,93,0.00,,,0.97,136.000000,,2013-06-07 18:01:00,
2013-06-07 14:28:00,58.0,56.0,-100.00,North,5,1.0,5.0,93,0.00,,,0.97,136.000000,,2013-06-07 18:28:00,
2013-06-07 14:38:00,58.0,56.0,-100.00,North,5,1.0,5.0,93,0.00,,,0.97,136.000000,,2013-06-07 18:38:00,
2013-06-07 14:45:00,58.0,56.0,-100.00,North,5,1.0,5.0,93,0.00,,,0.97,136.000000,,2013-06-07 18:45:00,
2013-06-07 15:01:00,59.0,57.0,-100.00,NNW,343,1.0,5.0,93,0.02,,,0.98,157.000000,,2013-06-07 19:01:00,
2013-06-07 15:40:00,59.0,57.0,-100.00,NNW,343,1.0,5.0,93,0.02,,,0.98,157.000000,,2013-06-07 19:40:00,
2013-06-07 15:51:00,59.0,57.0,-100.00,NNW,343,1.0,5.0,93,0.02,,,0.98,157.000000,,2013-06-07 19:51:00,
2013-06-07 15:59:00,59.0,57.0,-100.00,NNW,343,1.0,5.0,93,0.02,,,0.98,157.000000,,2013-06-07 19:59:00,
2013-06-07 16:01:00,58.0,57.0,-100.00,North,356,1.0,5.0,95,0.02,,,-99.99,123.000000,,2013-06-07 20:01:00,
2013-06-07 16:28:00,58.0,57.0,-100.00,North,356,1.0,5.0,95,0.02,,,-99.99,123.000000,,2013-06-07 20:28:00,
2013-06-07 16:42:00,58.0,57.0,-100.00,North,356,1.0,5.0,95,0.02,,,-99.99,123.000000,,2013-06-07 20:42:00,
2013-06-07 16:52:00,58.0,57.0,-100.00,North,356,1.0,5.0,95,0.02,,,-99.99,123.000000,,2013-06-07 20:52:00,
2013-06-07 16:59:00,58.0,57.0,-100.00,North,356,1.0,5.0,95,0.02,,,-99.99,123.000000,,2013-06-07 20:59:00,
2013-06-07 17:01:00,59.0,58.0,-100.00,North,10,0.0,6.0,96,0.02,,,1.00,106.000000,,2013-06-07 21:01:00,
2013-06-07 17:30:00,59.0,58.0,-100.00,North,10,0.0,6.0,96,0.02,,,1.00,106.000000,,2013-06-07 21:30:00,
2013-06-07 17:43:00,59.0,58.0,-100.00,North,10,0.0,6.0,96,0.02,,,1.00,106.000000,,2013-06-07 21:43:00,
2013-06-07 18:01:00,59.0,58.0,-100.00,North,355,0.0,3.0,96,0.02,,,0.99,90.000000,,2013-06-07 22:01:00,
2013-06-07 18:29:00,59.0,58.0,-100.00,North,355,0.0,3.0,96,0.02,,,0.99,90.000000,,2013-06-07 22:29:00,
2013-06-07 18:39:00,59.0,58.0,-100.00,North,355,0.0,3.0,96,0.02,,,0.99,90.000000,,2013-06-07 22:39:00,
2013-06-07 18:49:00,59.0,58.0,-100.00,North,355,0.0,3.0,96,0.02,,,0.99,90.000000,,2013-06-07 22:49:00,
2013-06-07 19:00:00,59.0,58.0,-100.00,North,355,0.0,3.0,96,0.02,,,0.99,90.000000,,2013-06-07 23:00:00,
2013-06-07 19:01:00,58.0,57.0,-100.00,NNW,347,0.0,3.0,96,0.04,,,1.00,45.000000,,2013-06-07 23:01:00,
2013-06-07 19:41:00,58.0,57.0,-100.00,NNW,347,0.0,3.0,96,0.04,,,1.00,45.000000,,2013-06-07 23:41:00,
2013-06-07 20:01:00,57.0,56.0,-100.00,NNE,12,1.0,5.0,97,0.00,,,0.97,18.000000,,2013-06-08 00:01:00,
2013-06-07 20:37:00,57.0,56.0,-100.00,NNE,12,1.0,5.0,97,0.00,,,0.97,18.000000,,2013-06-08 00:37:00,
2013-06-07 21:01:00,57.0,56.0,-100.00,NNW,337,0.0,3.0,97,0.01,,,0.95,4.000000,,2013-06-08 01:01:00,
2013-06-07 21:29:00,57.0,56.0,-100.00,NNW,337,0.0,3.0,97,0.01,,,0.95,4.000000,,2013-06-08 01:29:00,
2013-06-07 21:40:00,57.0,56.0,-100.00,NNW,337,0.0,3.0,97,0.01,,,0.95,4.000000,,2013-06-08 01:40:00,
2013-06-07 22:01:00,56.0,55.0,-100.00,NNE,14,0.0,4.0,98,0.00,,,0.89,0.000000,,2013-06-08 02:01:00,
2013-06-07 22:31:00,56.0,55.0,-100.00,NNE,14,0.0,4.0,98,0.00,,,0.89,0.000000,,2013-06-08 02:31:00,
2013-06-07 22:37:00,56.0,55.0,-100.00,NNE,14,0.0,4.0,98,0.00,,,0.89,0.000000,,2013-06-08 02:37:00,
2013-06-07 22:49:00,56.0,55.0,-100.00,NNE,14,0.0,4.0,98,0.00,,,0.89,0.000000,,2013-06-08 02:49:00,
2013-06-07 23:00:00,56.0,55.0,-100.00,NNE,14,0.0,4.0,98,0.00,,,0.89,0.000000,,2013-06-08 03:00:00,
2013-06-07 23:01:00,56.0,55.0,-100.00,North,356,0.0,4.0,98,0.00,,,0.80,0.000000,,2013-06-08 03:01:00,
2013-06-07 23:27:00,56.0,55.0,-100.00,North,356,0.0,4.0,98,0.00,,,0.80,0.000000,,2013-06-08 03:27:00,
2013-06-07 23:40:00,56.0,55.0,-100.00,North,356,0.0,4.0,98,0.00,,,0.80,0.000000,,2013-06-08 03:40:00,
2013-06-07 23:54:00,56.0,55.0,-100.00,North,356,0.0,4.0,98,0.00,,,0.80,0.000000,,2013-06-08 03:54:00,